Temp
87 85 84 83 82 81 79 76 77 75 76 75 75 76 76 76 76 76 77 76 75 79 80 79 78 81 75 79 74 73 74 74 74 75 74 74 74 74 74 73 73 73 72 74 74 73 73 73 73 73 74 73 74 78 82 86 89 90 91 90 87 83
86 86 84 82 82 81 79 79 81 79 79 78 76 76 78 80 79 80 77 78 79 81 82 81 82 80 81 78 77 74 74 74 74 74 74 74 74 74 73 74 73 73 73 73 72 79 78 74 73 73 74 73 77 82 84 87 87 90 91 90 86 78
85 84 83 84 83 82 83 83 83 82 82 79 80 80 81 82 83 83 84 82 82 83 84 83 83 82 81 78 77 74 74 74 74 74 73 74 74 73 73 73 73 73 73 72 78 82 85 84 80 73 74 77 81 84 88 87 88 88 90 90 85 75
84 83 83 82 83 83 84 84 84 83 82 81 81 82 83 83 84 84 84 84 85 85 84 81 79 80 79 80 77 74 74 74 74 74 73 74 73 74 73 71 73 73 74 80 84 86 88 87 85 81 81 82 84 87 87 88 89 89 89 90 85 74
84 83 84 83 83 84 85 85 86 85 84 85 83 83 84 84 85 84 85 84 86 84 85 85 82 83 83 84 82 80 79 79 79 79 73 80 79 81 76 82 80 77 82 84 87 87 89 87 84 85 84 85 85 87 88 88 88 89 89 87 79 73
84 83 84 83 84 85 84 87 86 86 86 85 85 86 85 84 85 83 85 85 84 82 83 86 84 83 84 84 85 85 84 84 82 82 79 82 86 83 82 84 84 83 84 86 87 88 89 88 87 86 86 86 86 87 87 88 89 88 88 87 78 74
83 83 83 83 83 85 86 87 87 86 86 85 86 85 86 86 85 84 85 85 83 83 83 85 83 83 83 84 85 86 86 85 84 86 85 85 86 86 86 87 87 86 87 88 88 89 88 88 88 90 88 88 87 88 87 87 88 88 88 88 78 73
83 83 83 84 83 86 86 85 85 85 85 86 87 85 87 86 85 85 84 84 83 84 84 84 83 83 83 83 83 83 84 85 85 86 86 85 86 87 87 87 87 88 88 87 88 87 88 90 89 87 88 88 87 86 86 87 87 86 87 87 78 75
82 82 84 84 84 86 87 86 85 84 86 84 85 86 86 85 84 85 84 84 83 83 84 84 83 82 82 80 78 80 83 81 85 87 82 84 84 82 84 85 86 87 86 86 87 85 87 88 88 88 88 88 88 87 86 85 85 85 86 86 84 76
82 82 83 83 83 84 85 85 84 83 85 83 85 85 85 85 84 85 84 84 83 83 83 83 81 78 77 75 77 75 81 84 84 84 84 82 83 80 81 83 84 84 86 86 86 86 86 87 89 89 90 89 87 87 86 86 85 85 85 85 84 78
82 82 82 83 85 84 84 84 83 85 84 84 85 84 84 84 85 84 84 83 83 83 82 79 80 76 73 75 74 75 78 81 82 83 84 85 84 85 84 83 83 83 84 83 84 86 87 86 87 89 89 90 88 87 86 86 85 84 84 85 85 80
82 81 81 84 85 83 84 84 84 85 84 84 83 83 84 84 84 86 85 82 82 82 81 79 79 79 82 81 82 82 82 81 82 83 85 84 84 84 84 84 83 83 82 82 83 83 82 84 85 88 89 90 90 87 86 83 84 84 84 84 85 79
82 80 81 83 83 84 84 85 84 84 84 84 83 84 85 84 84 85 82 82 82 83 83 81 80 81 82 82 82 80 82 82 83 83 83 82 81 82 82 82 82 83 82 82 81 82 84 83 82 82 81 86 87 87 85 85 83 83 83 83 82 82
80 80 81 82 83 84 83 83 84 85 84 83 84 85 85 84 85 85 83 82 82 83 82 82 80 80 82 83 82 81 82 82 84 82 82 81 81 82 81 81 81 82 80 79 81 80 79 81 80 83 82 82 83 84 82 84 85 85 83 82 83 82
79 80 81 81 82 82 82 83 84 85 84 83 84 85 85 83 83 83 83 82 82 82 82 83 82 79 82 83 82 83 82 83 82 82 82 81 80 81 81 80 81 80 80 81 81 80 80 78 77 80 82 79 75 80 84 85 85 84 84 83 82 81
79 79 80 80 81 81 81 83 84 84 83 83 86 84 84 83 83 83 82 82 82 82 82 82 82 82 81 82 83 83 83 82 81 82 82 81 80 80 81 80 80 80 77 79 80 80 82 80 79 81 81 79 79 80 78 80 79 82 82 83 83 81
78 79 79 80 81 81 82 82 82 82 82 82 82 83 82 82 82 82 81 82 81 81 83 82 82 82 81 81 83 83 83 82 82 82 81 81 81 82 81 80 79 80 79 76 80 79 79 79 79 79 78 78 78 78 76 77 75 75 80 81 82 83
80 80 80 79 80 80 81 81 82 82 81 80 81 81 82 82 82 82 82 80 82 82 82 83 82 83 82 82 83 83 83 82 82 81 80 80 81 82 81 80 78 79 80 78 78 78 77 79 79 78 78 78 77 79 79 78 78 79 80 81 82 82
79 79 79 79 80 80 81 80 81 80 80 80 81 81 81 81 78 81 81 83 82 83 82 83 83 83 82 83 83 82 82 82 82 81 80 80 81 81 80 79 78 78 79 79 79 79 78 78 78 78 78 78 79 79 80 81 80 81 81 80 81 81
79 79 80 80 80 81 81 79 78 79 79 78 80 79 81 80 82 84 85 82 84 82 84 83 83 83 82 81 82 82 82 82 82 81 80 79 80 81 79 78 78 78 77 78 80 79 80 78 78 77 76 77 78 78 78 79 79 79 79 79 80 81
78 79 79 80 79 80 78 77 77 76 73 75 78 80 80 81 81 84 84 85 84 83 83 83 83 83 82 81 82 82 82 82 82 81 80 79 80 79 80 79 79 78 77 76 77 79 79 79 75 75 77 77 77 79 78 77 77 79 79 80 81 80
78 78 79 79 79 78 79 77 70 69 71 70 74 78 78 79 76 82 82 83 83 83 83 82 83 82 82 82 81 81 81 81 81 80 80 81 80 79 79 79 79 77 79 77 76 79 79 77 74 74 72 73 75 79 79 78 78 79 79 80 80 79
78 78 78 77 75 73 70 67 69 69 71 70 73 79 77 76 76 80 81 82 83 83 83 83 83 83 81 81 81 81 80 81 81 80 79 79 79 79 79 78 78 76 76 79 79 80 78 78 73 75 75 72 71 72 77 77 77 78 78 79 79 78
77 77 71 66 66 67 68 69 70 69 69 69 73 77 78 78 78 76 81 82 83 83 83 83 83 83 82 82 81 80 80 80 80 80 79 78 78 78 78 78 78 77 77 74 77 78 80 78 76 74 69 71 71 71 69 72 72 75 77 78 78 78
73 68 67 69 68 70 71 70 70 71 70 69 69 73 76 76 78 79 80 81 82 83 83 83 83 83 84 82 81 81 81 80 79 79 80 79 79 79 79 80 78 77 76 75 74 76 78 79 78 78 73 70 70 70 70 72 72 74 79 76 77 77
68 67 66 70 71 71 71 72 72 69 68 66 66 72 71 73 74 80 82 82 84 84 83 82 83 83 83 82 80 80 80 80 80 79 79 79 79 79 79 79 80 78 77 77 75 74 74 78 79 77 77 75 73 69 68 71 70 67 77 78 78 76
66 67 69 70 72 71 69 72 73 71 71 69 69 71 74 77 79 82 82 81 82 82 83 81 81 82 81 81 80 80 80 80 80 80 80 79 78 78 80 80 80 79 78 77 76 72 73 75 78 78 78 76 75 75 75 70 66 69 67 74 77 77
68 68 69 69 69 69 68 70 71 72 69 71 70 71 76 79 80 82 81 80 81 80 82 82 80 81 81 81 80 80 80 79 79 80 80 80 79 80 79 79 79 79 78 77 76 74 73 75 73 74 77 76 75 76 76 74 73 69 67 65 70 77
69 71 71 68 68 69 70 71 71 69 68 70 72 74 80 80 80 80 79 79 80 82 82 80 80 79 79 79 79 79 79 78 78 79 81 81 81 80 78 77 77 77 76 76 76 76 74 74 75 74 74 75 76 75 75 74 73 73 68 65 66 70
70 69 68 68 71 69 68 68 67 68 69 71 79 80 81 79 78 79 77 77 78 77 78 78 78 78 77 78 78 77 78 78 77 78 78 79 79 77 77 77 77 77 77 76 77 77 75 75 76 76 76 75 73 74 73 74 74 72 71 70 65 68
71 70 69 70 70 70 69 69 69 71 75 76 77 77 77 76 77 77 76 76 76 75 75 75 76 76 75 76 76 77 76 76 77 77 78 78 77 77 77 77 77 77 77 76 76 75 75 75 75 75 75 75 74 74 72 71 71 72 71 69 68 69
70 68 69 69 68 67 71 70 75 76 76 76 76 77 75 75 76 76 75 74 75 75 74 75 75 75 74 74 75 76 76 76 76 76 76 76 76 77 77 76 76 76 76 76 76 75 75 75 75 75 75 76 75 75 75 74 74 74 72 72 70 69
68 68 68 68 69 68 70 73 75 76 76 76 75 75 76 75 75 74 73 73 73 74 75 74 74 73 73 73 74 74 73 73 74 74 74 75 74 75 75 75 75 75 76 75 76 75 75 74 74 73 74 75 76 75 75 76 76 75 74 73 71 68
67 68 68 69 71 73 75 75 75 75 75 75 74 74 74 74 73 73 73 72 73 74 74 73 73 72 73 73 73 72 72 72 73 73 73 74 74 74 74 75 75 75 75 75 76 75 74 74 74 74 75 74 75 76 76 76 75 75 73 72 71 70
69 69 70 72 74 73 73 73 73 73 73 73 72 72 72 72 71 71 72 72 72 73 74 74 74 72 72 70 70 70 70 70 69 69 70 69 70 71 72 73 74 74 75 75 75 74 74 73 73 73 73 73 74 74 75 76 76 75 76 75 73 72
72 72 73 73 72 72 71 72 72 71 72 72 72 71 70 71 70 71 71 72 71 71 71 72 72 70 69 69 68 68 69 69 69 69 69 69 69 70 70 70 71 72 72 74 73 72 73 73 71 72 72 73 73 73 75 76 76 76 76 75 74 74
71 72 72 72 72 72 72 72 71 71 70 70 70 69 69 69 69 70 70 70 70 70 70 69 68 68 67 68 68 67 68 68 68 68 68 69 69 69 69 69 70 69 69 71 71 70 71 71 71 72 73 72 71 72 74 75 75 75 75 75 75 75
MSLP
1013.98 1014.38 1014.66 1015.02 1015.42 1015.70 1016.10 1016.34 1016.46 1016.58 1016.70 1016.82 1016.94 1017.02 1017.14 1017.26 1017.38 1017.42 1017.46 1017.50 1017.50 1017.38 1017.26 1017.46 1017.54 1017.50 1017.82 1017.78 1017.98 1018.10 1018.14 1018.18 1018.14 1018.14 1018.18 1018.18 1018.18 1018.18 1018.18 1018.18 1018.18 1018.18 1018.18 1018.14 1018.06 1018.02 1017.98 1017.94 1017.94 1017.90 1017.86 1017.82 1017.66 1017.46 1016.94 1016.30 1015.94 1015.90 1015.66 1015.94 1016.18 1016.90
1013.86 1014.22 1014.54 1015.02 1015.34 1015.70 1016.10 1016.18 1016.22 1016.46 1016.62 1016.78 1016.90 1016.98 1017.02 1016.98 1017.10 1017.18 1017.34 1017.42 1017.38 1017.10 1017.02 1017.18 1017.14 1017.34 1017.34 1017.70 1017.90 1018.10 1018.18 1018.22 1018.22 1018.22 1018.22 1018.22 1018.22 1018.26 1018.26 1018.22 1018.22 1018.18 1018.18 1018.10 1017.98 1017.82 1017.74 1017.86 1017.94 1017.90 1017.86 1017.74 1017.62 1017.18 1016.62 1016.34 1016.22 1015.82 1015.78 1015.74 1016.30 1017.06
1013.98 1014.30 1014.54 1014.78 1015.18 1015.62 1015.82 1015.82 1016.02 1016.22 1016.38 1016.62 1016.74 1016.78 1016.74 1016.78 1016.82 1016.86 1016.90 1017.10 1016.98 1016.82 1016.74 1016.94 1016.98 1017.10 1017.22 1017.54 1017.82 1018.06 1018.18 1018.22 1018.26 1018.22 1018.26 1018.22 1018.26 1018.26 1018.30 1018.26 1018.22 1018.14 1018.10 1018.02 1017.82 1017.42 1017.06 1017.26 1017.58 1017.90 1017.90 1017.74 1017.34 1016.86 1016.22 1016.30 1016.22 1015.94 1015.74 1015.66 1016.46 1017.06
1014.02 1014.26 1014.50 1014.78 1015.02 1015.46 1015.50 1015.58 1015.74 1015.94 1016.34 1016.42 1016.54 1016.50 1016.50 1016.50 1016.54 1016.54 1016.70 1016.66 1016.54 1016.66 1016.74 1017.02 1017.30 1017.30 1017.42 1017.50 1017.74 1017.94 1018.02 1018.06 1018.06 1018.06 1018.10 1018.14 1018.18 1018.18 1018.26 1018.26 1018.18 1018.14 1018.06 1017.78 1017.34 1016.90 1016.50 1016.70 1016.94 1017.38 1017.46 1017.30 1017.02 1016.54 1016.34 1016.22 1016.10 1015.86 1015.70 1015.78 1016.54 1017.14
1013.94 1014.26 1014.42 1014.74 1015.02 1015.14 1015.14 1015.38 1015.50 1015.66 1015.94 1016.06 1016.26 1016.18 1016.22 1016.34 1016.34 1016.46 1016.42 1016.54 1016.42 1016.74 1016.74 1016.66 1017.06 1017.10 1017.02 1016.78 1017.14 1017.50 1017.66 1017.70 1017.66 1017.78 1017.90 1017.74 1017.78 1017.74 1017.94 1017.78 1017.90 1018.06 1017.62 1017.34 1016.98 1016.42 1016.10 1016.50 1016.78 1016.86 1016.90 1016.86 1016.70 1016.34 1016.26 1016.14 1016.06 1015.82 1015.74 1015.90 1016.78 1017.06
1014.06 1014.22 1014.42 1014.74 1014.86 1014.90 1015.10 1015.02 1015.38 1015.50 1015.58 1015.74 1015.98 1015.90 1016.10 1016.18 1016.30 1016.54 1016.38 1016.46 1016.54 1016.98 1016.82 1016.50 1016.78 1016.78 1016.70 1016.74 1016.74 1016.82 1016.86 1016.86 1017.14 1017.18 1017.50 1017.30 1016.94 1017.18 1017.38 1017.14 1017.22 1017.38 1017.22 1016.74 1016.50 1016.22 1016.10 1016.14 1016.26 1016.50 1016.58 1016.50 1016.42 1016.26 1016.18 1015.98 1015.82 1015.94 1015.82 1016.02 1016.86 1017.02
1014.14 1014.30 1014.54 1014.62 1014.86 1014.86 1014.82 1014.66 1014.98 1015.34 1015.50 1015.58 1015.66 1015.98 1015.94 1015.98 1016.14 1016.42 1016.30 1016.38 1016.78 1016.86 1016.82 1016.66 1016.82 1016.82 1016.78 1016.62 1016.70 1016.58 1016.54 1016.62 1016.90 1016.74 1016.82 1016.86 1016.74 1016.78 1016.82 1016.58 1016.62 1016.66 1016.54 1016.46 1016.42 1016.26 1016.18 1016.14 1016.14 1015.98 1016.06 1016.22 1016.18 1016.10 1016.14 1016.10 1015.94 1015.90 1015.86 1015.78 1016.70 1017.06
1014.14 1014.42 1014.58 1014.66 1014.86 1014.74 1014.74 1014.82 1015.06 1015.42 1015.42 1015.38 1015.50 1015.82 1015.78 1015.94 1016.02 1016.34 1016.42 1016.54 1016.66 1016.58 1016.70 1016.74 1016.78 1016.74 1016.70 1016.70 1016.86 1016.74 1016.62 1016.54 1016.58 1016.46 1016.58 1016.74 1016.70 1016.66 1016.62 1016.46 1016.50 1016.50 1016.42 1016.38 1016.46 1016.42 1016.26 1015.98 1015.90 1016.02 1015.98 1016.02 1016.18 1016.18 1016.14 1016.02 1015.98 1015.98 1015.90 1015.70 1016.78 1016.98
1014.22 1014.46 1014.54 1014.62 1014.82 1014.58 1014.66 1014.90 1015.26 1015.62 1015.38 1015.62 1015.66 1015.66 1015.78 1015.94 1016.22 1016.30 1016.38 1016.50 1016.66 1016.62 1016.50 1016.50 1016.58 1016.78 1016.86 1017.14 1017.30 1017.10 1016.74 1016.78 1016.38 1016.18 1016.70 1016.70 1016.66 1016.98 1016.90 1016.78 1016.62 1016.58 1016.46 1016.42 1016.34 1016.42 1016.26 1016.14 1015.82 1015.62 1015.86 1015.90 1015.90 1016.02 1016.02 1016.06 1016.10 1016.10 1015.98 1015.94 1016.14 1016.78
1014.30 1014.38 1014.58 1014.78 1014.70 1014.66 1014.82 1015.14 1015.46 1015.74 1015.42 1015.78 1015.70 1015.62 1015.78 1016.06 1016.22 1016.18 1016.46 1016.50 1016.62 1016.54 1016.42 1016.50 1016.78 1017.18 1017.58 1018.02 1017.78 1017.86 1016.98 1016.50 1016.58 1016.54 1016.62 1016.86 1016.66 1017.06 1016.98 1016.74 1016.66 1016.74 1016.66 1016.46 1016.38 1016.22 1016.18 1016.18 1015.90 1015.54 1015.42 1015.58 1015.70 1015.86 1015.82 1015.94 1016.06 1016.14 1016.06 1016.02 1016.06 1016.34
1014.26 1014.42 1014.58 1014.78 1014.54 1014.70 1014.90 1015.10 1015.46 1015.42 1015.46 1015.74 1015.54 1015.74 1015.98 1016.02 1015.98 1016.14 1016.26 1016.42 1016.50 1016.42 1016.50 1016.78 1016.90 1017.42 1017.98 1017.90 1017.82 1017.66 1017.22 1016.82 1016.74 1016.66 1016.58 1016.58 1016.54 1016.58 1016.50 1016.62 1016.70 1016.66 1016.62 1016.74 1016.58 1016.30 1016.06 1016.10 1015.94 1015.66 1015.30 1015.22 1015.26 1015.30 1015.58 1015.62 1015.82 1015.98 1016.06 1015.94 1015.82 1016.10
1014.30 1014.50 1014.66 1014.42 1014.46 1014.90 1014.94 1015.18 1015.26 1015.26 1015.58 1015.46 1015.70 1015.94 1015.94 1015.94 1015.98 1015.90 1015.94 1016.38 1016.42 1016.38 1016.54 1016.78 1016.90 1017.02 1016.62 1016.70 1016.70 1016.62 1016.66 1016.86 1016.78 1016.62 1016.54 1016.66 1016.74 1016.70 1016.62 1016.58 1016.58 1016.62 1016.78 1016.78 1016.62 1016.50 1016.46 1016.26 1016.14 1015.70 1015.30 1015.14 1014.86 1014.94 1015.14 1015.58 1015.66 1015.78 1015.94 1015.90 1015.66 1016.22
1014.30 1014.62 1014.70 1014.50 1014.62 1014.70 1014.82 1014.98 1015.14 1015.18 1015.26 1015.42 1015.78 1015.66 1015.66 1015.74 1015.74 1015.74 1016.18 1016.38 1016.38 1016.34 1016.30 1016.54 1016.74 1016.66 1016.58 1016.50 1016.58 1016.82 1016.70 1016.70 1016.66 1016.58 1016.70 1016.94 1017.02 1016.90 1016.82 1016.82 1016.74 1016.66 1016.70 1016.50 1016.54 1016.42 1016.18 1016.30 1016.46 1016.38 1016.34 1015.70 1015.02 1014.94 1014.90 1015.14 1015.54 1015.62 1015.78 1015.86 1015.90 1015.78
1014.38 1014.66 1014.54 1014.50 1014.54 1014.74 1014.86 1014.94 1014.94 1014.90 1015.06 1015.46 1015.42 1015.38 1015.50 1015.62 1015.66 1015.82 1016.06 1016.30 1016.30 1016.34 1016.38 1016.42 1016.70 1016.74 1016.54 1016.54 1016.62 1016.74 1016.74 1016.74 1016.58 1016.78 1016.86 1016.98 1017.02 1016.90 1017.02 1017.06 1017.02 1016.86 1016.98 1017.06 1016.70 1016.66 1016.74 1016.58 1016.50 1016.06 1016.22 1016.18 1015.90 1015.22 1015.34 1015.14 1015.14 1015.30 1015.50 1015.70 1015.62 1015.70
1014.38 1014.54 1014.46 1014.62 1014.58 1014.66 1014.74 1014.74 1014.70 1014.66 1015.02 1015.18 1015.10 1015.22 1015.34 1015.66 1015.78 1015.94 1015.98 1016.18 1016.22 1016.30 1016.34 1016.30 1016.46 1016.74 1016.58 1016.54 1016.62 1016.62 1016.70 1016.58 1016.70 1016.82 1016.90 1016.90 1016.98 1016.94 1016.94 1017.06 1016.94 1016.98 1016.78 1016.70 1016.74 1016.74 1016.78 1016.86 1016.82 1016.62 1016.14 1016.18 1016.66 1015.82 1015.14 1015.06 1015.02 1015.26 1015.22 1015.34 1015.42 1015.54
1014.22 1014.38 1014.42 1014.50 1014.46 1014.50 1014.58 1014.46 1014.42 1014.54 1014.86 1014.98 1014.90 1015.14 1015.38 1015.54 1015.66 1015.74 1015.94 1016.10 1016.18 1016.26 1016.26 1016.30 1016.30 1016.34 1016.58 1016.50 1016.46 1016.50 1016.54 1016.58 1016.78 1016.78 1016.78 1016.82 1016.86 1016.98 1016.82 1016.90 1016.82 1016.94 1017.18 1016.94 1016.70 1016.70 1016.34 1016.50 1016.62 1016.22 1016.06 1016.10 1016.02 1015.82 1015.86 1015.62 1015.70 1015.34 1015.14 1014.98 1015.02 1015.26
1014.18 1014.30 1014.34 1014.38 1014.38 1014.46 1014.38 1014.50 1014.50 1014.66 1014.82 1014.94 1015.06 1015.22 1015.34 1015.42 1015.54 1015.66 1015.74 1015.94 1016.02 1016.10 1016.10 1016.26 1016.26 1016.30 1016.42 1016.54 1016.42 1016.46 1016.50 1016.66 1016.62 1016.70 1016.82 1016.82 1016.82 1016.66 1016.74 1016.94 1016.90 1016.82 1016.98 1017.26 1016.90 1016.86 1016.74 1016.62 1016.46 1016.34 1016.34 1016.18 1016.10 1015.90 1016.02 1015.82 1015.98 1015.94 1015.22 1015.02 1015.02 1014.90
1013.90 1014.02 1014.14 1014.34 1014.34 1014.42 1014.42 1014.34 1014.46 1014.58 1014.74 1014.90 1015.02 1015.10 1015.18 1015.26 1015.38 1015.50 1015.62 1015.86 1015.82 1015.90 1015.98 1016.10 1016.14 1016.18 1016.34 1016.30 1016.34 1016.46 1016.46 1016.58 1016.58 1016.70 1016.82 1016.82 1016.78 1016.54 1016.62 1016.82 1017.10 1016.78 1016.74 1016.98 1016.98 1016.82 1016.90 1016.58 1016.50 1016.42 1016.26 1016.14 1016.06 1015.78 1015.58 1015.50 1015.34 1015.14 1015.10 1014.98 1014.82 1014.74
1013.70 1013.86 1014.02 1014.10 1014.18 1014.22 1014.26 1014.34 1014.34 1014.46 1014.70 1014.82 1014.90 1014.98 1015.14 1015.26 1015.54 1015.46 1015.54 1015.42 1015.62 1015.70 1015.86 1015.94 1015.98 1016.06 1016.26 1016.26 1016.30 1016.34 1016.46 1016.54 1016.50 1016.66 1016.78 1016.82 1016.66 1016.66 1016.78 1016.86 1017.06 1017.02 1016.74 1016.66 1016.78 1016.74 1016.70 1016.62 1016.50 1016.34 1016.22 1016.06 1015.78 1015.62 1015.42 1015.22 1015.14 1015.02 1014.90 1014.86 1014.82 1014.74
1013.46 1013.66 1013.74 1013.98 1014.10 1014.22 1014.34 1014.58 1014.70 1014.66 1015.02 1015.14 1015.06 1015.18 1015.18 1015.38 1015.14 1015.02 1015.06 1015.46 1015.38 1015.66 1015.66 1015.82 1015.94 1016.06 1016.22 1016.30 1016.34 1016.30 1016.42 1016.46 1016.46 1016.62 1016.78 1016.90 1016.86 1016.74 1016.90 1016.98 1016.94 1016.98 1017.02 1016.74 1016.46 1016.50 1016.42 1016.54 1016.50 1016.50 1016.38 1016.02 1015.74 1015.62 1015.50 1015.38 1015.30 1015.22 1015.10 1014.98 1014.90 1014.58
1013.46 1013.46 1013.74 1014.06 1014.26 1014.30 1014.66 1014.78 1014.98 1015.30 1015.78 1015.50 1015.34 1015.18 1015.26 1015.18 1015.22 1014.98 1015.10 1015.18 1015.34 1015.54 1015.62 1015.82 1015.90 1016.02 1016.22 1016.30 1016.30 1016.26 1016.38 1016.46 1016.42 1016.54 1016.74 1016.86 1016.78 1016.74 1016.70 1016.78 1016.82 1016.82 1017.02 1017.06 1016.86 1016.46 1016.46 1016.42 1016.82 1016.78 1016.18 1016.02 1015.78 1015.38 1015.30 1015.42 1015.34 1015.06 1015.02 1014.86 1014.66 1014.66
1013.46 1013.74 1013.82 1013.98 1014.26 1014.54 1014.58 1015.14 1016.18 1016.58 1016.42 1016.58 1016.02 1015.62 1015.78 1015.50 1015.94 1015.30 1015.34 1015.30 1015.42 1015.54 1015.66 1015.86 1015.94 1016.02 1016.18 1016.26 1016.38 1016.42 1016.46 1016.54 1016.54 1016.62 1016.62 1016.54 1016.58 1016.62 1016.66 1016.70 1016.70 1016.94 1016.54 1016.86 1016.90 1016.38 1016.34 1016.58 1016.98 1017.02 1017.06 1016.54 1015.90 1015.26 1014.86 1014.98 1015.06 1014.90 1014.78 1014.62 1014.50 1014.50
1013.62 1014.02 1014.30 1014.70 1015.30 1015.66 1016.18 1016.82 1017.06 1017.30 1017.18 1017.30 1016.50 1015.50 1015.62 1015.94 1016.02 1015.78 1015.54 1015.38 1015.42 1015.54 1015.66 1015.82 1015.90 1015.98 1016.22 1016.30 1016.34 1016.42 1016.54 1016.42 1016.46 1016.50 1016.70 1016.70 1016.62 1016.70 1016.66 1016.70 1016.74 1016.98 1016.90 1016.42 1016.50 1016.18 1016.34 1016.38 1017.10 1016.62 1016.46 1016.82 1016.66 1016.46 1015.22 1015.10 1015.06 1014.94 1014.74 1014.54 1014.34 1014.42
1013.98 1014.42 1015.54 1016.14 1016.30 1016.38 1016.46 1016.26 1016.34 1016.78 1017.10 1017.58 1016.90 1015.66 1015.42 1015.58 1015.86 1016.06 1015.70 1015.42 1015.42 1015.50 1015.62 1015.82 1015.90 1015.98 1016.10 1016.22 1016.34 1016.50 1016.46 1016.50 1016.54 1016.50 1016.66 1016.82 1016.78 1016.74 1016.66 1016.70 1016.70 1016.70 1016.78 1017.18 1016.66 1016.42 1016.06 1016.22 1016.54 1016.86 1017.58 1017.02 1016.66 1016.46 1016.74 1016.02 1015.94 1015.30 1014.70 1014.46 1014.34 1014.34
1014.82 1016.02 1016.54 1016.34 1016.18 1016.02 1015.94 1016.22 1016.34 1016.42 1016.50 1016.90 1017.50 1016.46 1015.94 1016.06 1015.90 1015.78 1015.74 1015.66 1015.66 1015.50 1015.62 1015.82 1015.82 1015.94 1016.02 1016.22 1016.26 1016.34 1016.46 1016.50 1016.58 1016.50 1016.50 1016.58 1016.62 1016.58 1016.50 1016.46 1016.50 1016.70 1016.78 1016.98 1017.02 1016.62 1016.14 1015.90 1016.14 1016.14 1016.82 1017.18 1016.90 1016.70 1016.42 1016.06 1015.98 1015.26 1014.30 1014.54 1014.38 1014.30
1015.70 1016.42 1016.50 1015.98 1015.94 1016.06 1016.26 1016.22 1016.30 1016.82 1017.26 1017.34 1017.70 1016.86 1016.74 1016.74 1016.58 1015.86 1015.66 1015.54 1015.46 1015.50 1015.66 1015.86 1015.86 1015.90 1016.06 1016.18 1016.42 1016.50 1016.50 1016.54 1016.50 1016.46 1016.50 1016.50 1016.46 1016.42 1016.42 1016.42 1016.26 1016.42 1016.62 1016.50 1016.82 1016.82 1016.70 1015.90 1015.82 1016.02 1016.06 1016.30 1016.66 1017.22 1017.06 1016.22 1016.50 1016.58 1014.38 1014.02 1014.02 1014.14
1015.30 1015.46 1015.42 1015.58 1015.74 1016.10 1016.70 1016.62 1016.54 1016.70 1016.66 1016.86 1017.26 1016.90 1016.38 1016.06 1015.82 1015.58 1015.54 1015.74 1015.78 1015.78 1015.78 1016.02 1016.14 1016.14 1016.26 1016.38 1016.42 1016.46 1016.50 1016.50 1016.50 1016.42 1016.38 1016.46 1016.54 1016.54 1016.34 1016.30 1016.22 1016.30 1016.38 1016.42 1016.62 1017.14 1016.90 1016.34 1015.86 1015.74 1015.78 1015.90 1015.98 1015.90 1015.94 1016.62 1016.98 1016.26 1016.26 1014.54 1014.02 1013.98
1015.02 1015.54 1015.74 1016.10 1016.50 1016.50 1017.22 1017.06 1017.02 1016.74 1016.74 1016.82 1016.90 1016.98 1016.38 1015.90 1015.70 1015.58 1015.82 1015.94 1015.94 1016.06 1015.98 1016.06 1016.26 1016.34 1016.30 1016.34 1016.50 1016.54 1016.50 1016.58 1016.54 1016.38 1016.34 1016.38 1016.38 1016.26 1016.34 1016.30 1016.26 1016.26 1016.26 1016.34 1016.50 1016.82 1016.74 1016.34 1016.58 1016.30 1015.66 1015.82 1015.82 1015.70 1015.62 1015.74 1015.94 1016.50 1016.54 1016.58 1015.10 1013.74
1014.82 1015.06 1015.38 1016.06 1016.82 1017.22 1017.18 1016.86 1016.94 1016.98 1017.30 1017.26 1016.94 1016.66 1015.78 1015.74 1015.86 1015.90 1016.18 1016.14 1016.22 1016.02 1016.10 1016.34 1016.46 1016.66 1016.74 1016.78 1016.82 1016.78 1016.78 1016.78 1016.74 1016.66 1016.46 1016.34 1016.14 1016.18 1016.42 1016.50 1016.42 1016.38 1016.46 1016.38 1016.34 1016.34 1016.50 1016.46 1016.26 1016.26 1016.06 1015.86 1015.66 1015.70 1015.58 1015.50 1015.58 1015.66 1016.34 1016.62 1015.74 1014.90
1014.78 1015.22 1015.62 1015.90 1016.10 1017.18 1017.58 1017.14 1016.86 1016.94 1017.30 1017.06 1015.98 1015.82 1015.70 1016.06 1016.22 1016.06 1016.54 1016.58 1016.62 1016.74 1016.62 1016.78 1016.90 1017.02 1017.18 1017.10 1017.14 1017.14 1016.98 1016.94 1016.94 1016.82 1016.78 1016.62 1016.62 1016.66 1016.54 1016.46 1016.42 1016.38 1016.34 1016.46 1016.22 1016.18 1016.30 1016.22 1016.02 1015.86 1015.86 1015.82 1016.02 1015.74 1015.62 1015.42 1015.26 1015.50 1015.50 1015.66 1016.18 1015.14
1014.94 1015.30 1015.46 1015.50 1015.98 1016.66 1016.78 1016.58 1016.98 1017.02 1016.58 1016.42 1016.18 1016.14 1016.30 1016.42 1016.42 1016.50 1016.74 1016.78 1016.98 1017.10 1017.14 1017.26 1017.26 1017.34 1017.50 1017.54 1017.46 1017.30 1017.30 1017.30 1017.10 1016.98 1016.90 1016.86 1016.78 1016.70 1016.58 1016.50 1016.42 1016.38 1016.38 1016.46 1016.38 1016.30 1016.30 1016.14 1016.06 1015.90 1015.70 1015.70 1015.74 1015.70 1015.82 1015.90 1015.58 1015.26 1015.34 1015.42 1015.30 1014.86
1015.18 1015.26 1015.18 1015.54 1016.18 1016.42 1016.58 1017.06 1016.54 1016.34 1016.38 1016.26 1016.22 1016.26 1016.50 1016.62 1016.54 1016.78 1016.90 1017.14 1017.14 1017.26 1017.34 1017.38 1017.54 1017.58 1017.66 1017.86 1017.70 1017.54 1017.38 1017.38 1017.26 1017.22 1017.22 1017.14 1017.14 1016.98 1016.78 1016.70 1016.66 1016.54 1016.38 1016.30 1016.26 1016.26 1016.14 1016.14 1015.98 1015.82 1015.66 1015.42 1015.38 1015.26 1015.18 1015.26 1015.02 1014.94 1015.06 1014.90 1014.90 1014.82
1015.38 1015.34 1015.46 1015.94 1016.50 1017.26 1017.22 1016.98 1016.62 1016.54 1016.42 1016.34 1016.46 1016.50 1016.50 1016.74 1016.90 1017.10 1017.26 1017.38 1017.46 1017.26 1017.22 1017.50 1017.78 1018.02 1017.94 1018.14 1017.94 1017.86 1017.94 1017.90 1017.78 1017.58 1017.58 1017.50 1017.46 1017.34 1017.18 1017.02 1016.82 1016.66 1016.50 1016.42 1016.26 1016.18 1016.22 1016.10 1016.02 1016.06 1015.86 1015.42 1015.22 1015.10 1015.06 1014.66 1014.66 1014.70 1014.54 1014.46 1014.66 1014.86
1015.38 1015.34 1015.82 1016.54 1017.02 1016.90 1016.74 1016.62 1016.58 1016.66 1016.66 1016.74 1016.94 1016.90 1016.94 1017.10 1017.30 1017.38 1017.50 1017.66 1017.58 1017.58 1017.54 1017.82 1017.90 1018.14 1018.18 1018.34 1018.26 1018.30 1018.22 1018.22 1018.02 1017.94 1017.82 1017.62 1017.54 1017.38 1017.22 1017.06 1016.86 1016.74 1016.62 1016.42 1016.22 1016.18 1016.14 1015.98 1015.86 1015.74 1015.58 1015.50 1015.18 1014.94 1014.70 1014.50 1014.50 1014.50 1014.54 1014.62 1014.50 1014.34
1015.58 1016.06 1016.50 1016.54 1016.58 1016.78 1016.90 1016.98 1017.02 1017.06 1017.14 1017.14 1017.34 1017.38 1017.42 1017.54 1017.62 1017.66 1017.66 1017.82 1017.98 1017.82 1017.74 1017.74 1017.94 1018.26 1018.54 1018.62 1018.66 1018.70 1018.62 1018.54 1018.50 1018.42 1018.26 1018.18 1018.02 1017.78 1017.50 1017.30 1017.02 1016.86 1016.70 1016.50 1016.38 1016.30 1016.22 1016.10 1015.98 1015.82 1015.70 1015.50 1015.26 1015.06 1014.74 1014.42 1014.30 1014.26 1014.02 1013.98 1014.02 1013.94
1015.78 1016.02 1016.26 1016.58 1016.90 1017.10 1017.30 1017.38 1017.42 1017.46 1017.46 1017.34 1017.46 1017.58 1017.78 1017.86 1017.98 1017.98 1018.02 1017.90 1018.10 1018.26 1018.38 1018.34 1018.42 1018.74 1018.82 1018.86 1019.02 1018.98 1018.82 1018.78 1018.74 1018.66 1018.54 1018.42 1018.30 1018.14 1017.98 1017.86 1017.58 1017.18 1017.10 1016.74 1016.66 1016.58 1016.38 1016.22 1016.14 1015.98 1015.78 1015.46 1015.34 1015.02 1014.58 1014.38 1014.14 1013.98 1013.86 1013.70 1013.66 1013.58
1015.98 1016.22 1016.58 1016.82 1016.98 1017.18 1017.30 1017.42 1017.58 1017.70 1017.78 1017.74 1017.70 1017.86 1018.06 1018.22 1018.26 1018.26 1018.26 1018.26 1018.38 1018.70 1018.82 1018.90 1019.06 1019.22 1019.26 1019.14 1019.18 1019.22 1019.06 1019.02 1018.94 1018.86 1018.74 1018.62 1018.50 1018.30 1018.14 1018.02 1017.82 1017.70 1017.54 1017.18 1017.10 1017.02 1016.74 1016.50 1016.22 1015.98 1015.70 1015.58 1015.54 1015.18 1014.74 1014.34 1014.10 1013.86 1013.70 1013.50 1013.38 1013.26
Wind_Speed
14 14 12 12 10 11 12 12 11 11 11 11 13 14 14 13 13 12 11 11 11 9 9 8 9 8 12 7 10 8 5 5 5 5 6 6 6 6 5 4 3 2 3 5 6 6 5 6 7 6 6 7 9 8 7 6 1 1 2 3 6 8
12 14 14 10 9 9 10 11 11 10 10 10 12 13 12 11 12 9 11 10 8 7 5 6 5 10 7 10 8 8 6 5 5 5 5 6 6 5 4 4 4 4 4 6 9 6 6 7 7 7 7 9 7 7 6 3 4 3 1 2 8 10
13 13 14 12 9 9 11 10 11 10 9 10 10 11 9 10 8 8 8 7 6 4 5 5 2 5 5 9 10 9 7 6 5 5 5 6 6 6 5 4 4 5 6 8 8 7 5 5 6 9 7 7 7 7 3 4 3 3 4 3 7 13
13 13 11 10 10 10 9 9 8 9 8 8 9 9 9 8 8 7 7 6 5 3 3 5 4 7 8 6 8 10 10 9 11 11 9 7 9 8 8 7 6 7 7 7 7 8 7 5 6 6 6 6 6 6 4 4 5 4 3 2 8 14
12 11 11 9 9 9 9 8 8 8 9 8 8 8 7 6 6 6 7 5 5 4 4 5 5 4 7 5 7 6 7 7 7 7 12 6 7 7 8 7 7 7 7 8 8 8 6 5 5 6 6 6 6 5 4 4 4 5 4 3 9 13
11 10 10 9 8 8 9 8 8 8 8 8 8 8 6 6 6 6 6 5 5 5 6 4 5 5 5 3 4 5 6 5 7 7 9 6 5 7 6 7 7 8 8 8 7 6 5 5 5 6 6 6 6 5 5 5 4 4 5 2 8 13
10 9 10 8 8 8 8 6 7 7 7 8 8 7 7 6 6 7 6 5 5 5 5 3 4 4 5 5 4 3 2 3 3 3 4 5 3 3 4 4 5 6 5 5 6 6 6 7 7 7 6 6 5 6 4 5 5 5 4 3 9 13
10 9 9 9 8 7 6 7 6 7 7 6 7 7 5 6 6 6 6 5 5 5 5 4 5 6 4 3 3 2 2 3 3 3 2 4 3 5 4 4 4 5 5 5 6 7 7 8 7 7 8 6 6 6 5 5 5 5 5 4 8 11
10 10 8 8 7 6 7 6 6 6 6 7 5 6 6 6 5 6 6 6 5 5 5 5 5 4 3 2 2 1 3 3 2 2 4 4 3 3 2 4 4 5 5 6 5 5 6 8 7 7 7 9 7 6 6 6 6 5 6 5 2 8
10 9 8 7 6 6 7 7 7 7 5 7 6 6 6 6 6 6 5 5 6 5 4 3 2 1 1 0 2 4 3 2 1 1 2 3 3 3 4 4 4 5 7 6 5 6 5 7 8 8 8 8 7 7 6 6 6 6 6 5 5 7
10 9 8 8 6 7 7 7 7 7 6 7 6 5 5 6 6 5 6 6 6 5 4 4 3 5 6 7 6 3 3 2 2 2 3 3 2 4 4 3 4 5 4 5 6 6 7 6 7 9 8 9 8 7 7 6 6 6 6 6 6 4
10 9 7 9 8 7 7 7 7 6 7 6 6 6 6 6 5 6 6 6 6 5 4 4 4 5 2 1 2 3 2 3 1 2 2 2 3 3 4 5 4 4 5 6 5 6 7 7 8 8 9 8 8 7 5 5 7 7 7 7 7 5
10 9 8 8 7 8 6 7 7 7 7 7 7 7 6 6 5 5 6 6 5 5 4 3 1 2 2 1 0 1 2 2 2 2 1 1 3 3 4 4 5 5 6 6 6 6 6 6 7 7 10 12 8 7 5 5 6 6 7 7 6 6
9 10 10 7 8 7 7 6 7 7 7 7 7 7 6 5 5 5 6 7 6 5 4 3 2 3 3 2 2 3 2 2 1 1 2 2 3 3 3 4 5 5 4 7 5 6 6 6 6 7 5 8 10 8 6 6 6 7 7 7 6 7
10 11 10 9 8 8 8 8 8 7 8 8 7 6 6 6 5 5 5 6 6 5 4 4 4 4 3 2 3 3 2 2 1 2 3 2 4 3 4 4 4 5 5 5 5 6 7 5 7 8 7 4 8 10 7 8 8 7 8 8 7 7
12 11 11 10 9 9 9 8 7 7 7 8 6 6 6 6 6 6 6 5 6 5 4 4 3 3 3 3 2 2 1 0 2 3 3 3 4 4 4 3 4 4 5 6 5 6 6 6 7 8 5 5 6 7 6 7 7 8 8 8 8 7
12 12 11 11 10 9 9 8 8 8 8 8 6 6 6 6 6 6 6 6 6 6 5 5 4 4 3 2 2 1 1 1 2 2 2 3 4 4 3 3 4 4 4 5 6 7 6 6 7 7 6 8 7 7 6 5 6 7 9 8 9 9
11 12 10 10 10 9 9 9 8 8 8 8 7 7 6 6 6 5 5 5 7 6 5 5 4 3 2 2 2 2 1 2 2 2 3 3 3 3 3 3 4 4 5 5 6 6 6 6 6 7 7 7 7 8 7 7 7 6 7 9 9 9
12 11 11 11 11 10 10 9 8 9 9 8 7 6 6 6 5 5 5 6 6 5 4 5 4 3 2 2 1 1 2 1 2 2 3 4 3 3 3 3 4 5 4 5 6 5 6 6 7 7 7 8 8 9 8 8 8 8 8 7 8 9
12 11 11 10 10 9 9 9 9 8 7 6 7 6 6 4 3 5 5 5 5 4 4 3 3 2 2 2 2 2 1 2 2 2 3 4 4 3 3 4 5 4 5 5 5 5 5 5 6 8 8 8 9 9 10 8 8 8 8 8 8 8
11 12 10 10 9 9 9 8 6 7 5 6 6 6 4 5 5 4 5 5 4 4 3 3 3 2 2 1 2 1 1 2 2 3 3 3 3 5 4 4 4 4 5 6 5 5 5 5 7 8 7 9 9 9 9 9 10 9 8 8 8 7
11 11 10 9 7 7 6 3 3 3 2 1 3 6 5 2 1 4 3 4 3 3 3 3 2 2 1 2 2 2 2 3 2 3 4 4 4 4 4 5 4 5 4 5 6 4 4 5 6 7 8 7 7 7 9 10 10 8 9 8 8 7
9 9 7 3 3 4 7 9 5 3 3 0 4 1 2 5 3 1 3 4 4 3 3 2 2 2 1 2 2 2 3 3 3 4 4 5 5 5 4 5 5 5 6 5 5 4 5 5 7 6 8 8 7 7 4 5 6 8 8 8 8 8
9 5 7 6 2 0 3 7 4 2 3 6 3 1 4 3 5 6 4 4 3 3 3 2 2 2 2 2 1 3 3 3 3 3 4 4 5 5 4 5 5 5 6 7 6 6 4 5 6 7 7 6 8 8 9 2 4 7 9 9 9 9
6 8 6 4 6 6 5 5 3 4 2 2 4 3 2 4 3 4 5 4 3 3 3 3 2 2 1 2 1 2 3 3 4 4 4 5 5 4 5 5 5 5 6 6 8 7 6 5 6 5 8 7 7 6 6 8 9 9 6 7 8 9
10 7 5 8 7 5 4 6 6 4 4 4 5 3 3 3 5 5 5 4 4 3 3 3 2 2 1 1 1 3 3 4 4 5 5 5 6 5 5 5 5 5 6 6 7 8 8 6 6 6 7 7 7 8 10 9 9 9 5 7 7 9
9 9 9 5 4 2 1 3 4 4 5 5 3 3 3 4 3 4 4 4 4 3 3 3 2 1 1 1 2 3 4 5 5 4 5 5 5 6 6 6 5 5 6 6 6 8 9 8 7 6 6 7 8 9 9 9 8 10 11 6 5 6
8 6 4 3 2 0 3 1 5 4 3 3 4 3 5 4 3 3 4 4 4 3 3 3 2 2 3 4 5 5 5 5 5 5 5 5 5 5 5 6 6 6 6 6 7 7 8 8 8 7 6 7 8 9 10 10 10 9 10 11 11 7
8 7 7 5 4 4 6 6 3 1 3 7 8 7 5 4 4 4 4 3 3 2 3 4 5 5 4 5 4 4 5 5 5 5 5 5 5 6 7 7 7 6 6 7 6 7 7 8 8 8 8 8 8 8 8 9 9 9 9 10 12 11
8 6 5 6 7 6 6 4 2 3 6 2 3 4 4 5 3 3 4 3 2 2 3 3 3 4 5 4 5 5 5 5 5 5 6 6 6 6 6 7 7 7 7 8 7 8 8 8 9 9 8 8 8 8 9 9 8 8 9 9 11 12
9 7 7 7 5 6 6 2 4 8 6 6 4 4 4 4 3 3 2 2 1 3 3 4 3 3 3 5 5 4 5 5 5 5 5 6 6 6 6 6 7 8 8 8 7 8 9 9 8 9 10 8 8 9 9 10 10 10 10 10 10 12
9 7 6 5 3 1 2 2 3 4 5 4 4 3 4 4 3 2 2 1 1 0 1 1 1 2 2 5 5 4 4 5 5 5 6 6 7 7 7 7 7 7 7 8 8 8 8 9 10 9 10 9 9 9 9 9 10 10 10 11 11 12
10 7 8 5 5 5 5 7 5 5 5 5 5 3 3 3 2 3 2 1 0 1 2 2 3 2 3 5 5 5 5 5 5 5 6 6 6 7 7 7 7 8 8 8 8 8 9 9 9 9 9 10 10 10 10 10 10 10 10 11 11 12
9 7 8 8 9 7 6 6 5 5 4 3 4 3 3 4 3 2 2 2 2 2 2 1 1 3 4 5 5 5 5 5 6 6 7 7 7 7 7 7 8 8 9 8 8 9 9 10 10 10 10 10 10 10 10 10 10 10 11 11 12 12
11 10 9 8 8 7 7 7 6 5 4 4 4 4 5 4 3 3 2 3 2 1 2 4 4 3 4 5 5 5 6 5 6 7 7 8 8 8 9 8 8 8 7 8 8 9 9 10 10 11 11 11 11 10 11 11 10 10 10 11 11 11
12 11 10 10 9 7 6 5 5 5 4 5 4 4 4 3 3 3 3 2 3 2 3 3 3 4 5 5 5 6 5 5 6 6 6 6 6 6 7 7 7 7 9 7 9 10 9 10 10 12 12 11 11 11 11 11 11 10 11 11 11 11
12 12 11 10 9 7 6 6 6 6 6 5 6 6 5 5 4 3 3 3 4 4 3 4 4 4 4 5 5 5 5 5 5 6 6 6 7 7 7 6 7 8 8 9 9 10 10 10 10 10 10 11 10 11 11 11 11 10 11 11 11 10
Wind_Direction
147 147 142 138 143 144 141 140 139 132 134 139 138 141 143 143 148 152 163 162 166 171 155 143 161 135 155 141 107 116 128 130 135 137 147 149 160 173 179 176 185 198 242 251 251 247 228 218 208 211 215 240 262 267 267 273 277 214 210 144 112 104
148 148 138 139 142 146 147 164 152 146 148 147 150 152 159 160 164 161 179 173 184 169 153 145 135 146 156 132 137 132 144 133 130 128 141 150 154 176 179 182 199 224 233 246 251 236 189 202 214 214 216 235 248 253 249 282 279 288 268 202 103 124
146 147 144 141 140 141 156 158 152 159 153 164 162 174 169 170 167 172 183 182 180 182 157 159 141 99 90 116 127 151 147 156 149 151 156 163 167 172 187 191 215 232 236 248 246 235 199 178 191 200 231 234 245 258 255 275 268 268 257 77 106 130
149 149 151 145 140 154 163 154 158 154 159 166 170 179 174 177 172 178 185 177 189 168 158 112 104 129 144 158 149 155 167 176 175 169 172 176 172 178 185 204 217 233 231 232 232 232 216 183 182 188 204 223 237 250 256 228 251 243 297 132 116 138
153 156 152 149 150 156 154 163 160 160 165 171 172 187 174 179 181 182 186 185 174 173 198 190 153 184 210 177 163 179 176 187 190 187 177 204 190 172 196 188 196 212 220 225 235 248 257 191 201 196 209 220 235 251 245 253 265 295 241 115 129 144
154 159 154 152 153 151 156 171 167 159 179 167 179 182 179 182 175 176 192 195 150 183 217 192 178 189 205 172 201 187 193 182 196 190 178 222 217 174 200 199 194 201 221 230 239 266 248 262 220 204 229 219 240 233 239 250 254 238 278 137 140 146
152 156 156 155 149 153 190 158 170 167 179 177 174 182 182 188 175 179 206 172 184 191 207 171 187 196 196 194 190 192 185 139 212 205 183 241 226 222 243 231 218 218 231 242 254 251 250 242 256 257 219 233 236 247 240 260 257 250 240 226 135 155
153 154 158 154 162 157 193 160 165 161 197 161 181 181 176 186 169 180 190 184 198 205 193 182 193 201 181 183 186 165 183 188 201 203 154 265 208 224 221 241 240 249 242 239 243 243 254 253 242 238 268 230 230 244 253 251 262 274 289 276 137 165
154 157 154 156 169 170 156 172 157 170 206 146 195 177 179 167 176 187 185 188 198 210 191 198 193 181 174 73 337 277 191 229 225 247 162 218 321 307 254 268 274 261 244 252 246 247 252 263 260 248 227 251 237 236 238 239 250 260 265 279 192 165
159 158 148 158 181 163 156 180 153 181 190 163 183 186 164 169 185 186 183 177 201 213 213 194 164 70 72 311 211 232 249 213 193 278 298 260 203 225 257 254 240 257 285 271 263 263 259 257 261 254 251 241 235 244 247 240 243 255 251 244 241 167
156 146 156 169 167 164 167 163 165 183 155 190 162 166 176 175 189 177 176 180 192 203 202 166 191 168 200 194 201 239 282 318 244 227 261 278 293 277 278 278 279 282 275 272 281 280 268 261 263 273 264 246 238 231 234 247 255 243 253 252 247 150
149 153 162 180 158 162 169 167 170 171 166 181 150 169 187 177 174 190 153 176 196 197 199 164 196 224 202 149 238 174 191 218 251 263 253 295 292 287 287 292 302 274 272 287 281 274 278 286 283 266 270 274 258 245 218 219 243 242 245 253 257 168
150 153 172 170 169 158 175 165 176 169 178 151 178 185 179 180 180 158 141 192 198 208 202 184 204 242 230 210 240 281 226 230 242 252 287 285 291 273 263 258 248 253 256 254 267 269 271 259 265 293 293 286 298 262 240 207 224 243 251 247 243 273
148 165 170 167 169 166 172 170 181 175 156 166 186 184 166 183 174 169 175 180 201 201 208 190 184 244 241 199 203 220 237 234 253 242 238 237 254 255 268 268 275 272 295 283 276 293 282 276 282 267 276 280 266 277 324 264 243 246 245 246 246 238
158 167 171 161 180 166 172 183 180 173 156 192 175 178 177 170 183 178 178 184 196 203 205 213 196 204 221 237 210 211 220 223 188 225 242 240 262 264 258 267 267 283 281 273 268 251 268 283 269 275 276 296 309 298 261 263 264 261 254 249 247 248
166 165 172 169 182 166 185 179 176 164 165 189 176 178 172 176 176 181 179 182 192 192 195 210 216 217 228 227 230 226 199 181 202 246 266 255 251 264 269 270 286 277 273 281 284 284 285 279 282 275 273 270 275 272 302 304 306 274 259 258 252 234
170 166 173 171 176 174 183 172 180 173 175 178 181 176 172 178 182 180 182 181 182 184 200 202 210 214 231 231 242 241 168 199 244 284 281 268 267 273 271 271 267 262 280 286 287 286 278 285 285 289 299 296 293 280 281 277 252 263 268 249 254 257
169 171 172 174 176 179 179 179 179 176 177 178 179 177 173 183 179 176 179 181 177 184 192 194 200 210 225 237 248 244 229 225 267 272 272 275 279 295 295 300 298 294 288 290 287 293 290 278 273 273 274 264 260 271 265 259 263 261 270 271 264 255
171 173 173 175 176 180 178 183 181 177 175 174 174 176 170 178 188 174 190 164 179 173 186 189 196 199 215 236 254 237 258 276 280 271 277 280 278 266 284 291 293 299 289 283 291 287 289 288 281 278 276 276 275 271 267 268 272 269 267 267 265 269
175 174 172 175 175 179 181 184 181 173 174 168 177 173 179 164 202 170 158 166 180 165 183 178 178 189 217 251 276 284 306 268 281 282 283 287 299 298 288 281 285 294 292 284 277 287 282 281 282 280 279 275 266 261 258 266 267 270 271 267 266 262
174 176 174 175 179 185 185 182 172 185 164 194 164 167 182 161 195 148 162 173 158 161 169 169 179 182 222 219 263 294 290 288 286 280 296 295 298 297 298 294 294 284 287 291 284 272 264 270 284 282 270 261 259 253 249 246 256 254 255 260 259 258
176 179 181 179 174 186 187 155 60 322 202 209 214 168 160 142 299 132 177 148 151 169 156 160 178 196 194 247 283 276 282 288 296 288 291 296 290 283 278 275 280 286 270 280 288 286 285 287 279 291 303 305 285 272 245 234 246 252 257 253 254 254
180 180 178 98 17 25 21 13 356 311 300 83 279 171 143 163 152 190 176 160 157 163 161 153 170 174 184 241 261 289 292 301 294 300 294 290 290 287 293 296 295 288 296 284 274 271 276 271 292 302 298 287 291 305 288 233 234 253 255 259 254 248
176 158 60 67 86 19 178 182 188 123 39 314 298 133 144 125 177 171 176 168 157 158 157 153 159 189 191 229 268 286 292 296 301 300 300 296 293 294 288 288 281 277 284 291 290 294 277 274 277 303 302 315 313 302 299 260 229 247 250 252 251 249
114 70 55 102 178 219 180 158 127 109 87 91 267 255 150 175 192 175 170 168 146 145 155 146 156 193 198 213 265 300 307 309 302 299 297 293 289 295 294 288 287 282 279 288 297 300 296 285 273 274 292 303 301 291 308 318 326 298 259 242 234 245
94 109 181 214 207 195 153 148 152 133 137 120 229 214 195 177 206 180 137 131 130 127 129 119 161 170 93 319 13 303 304 296 299 303 302 304 301 298 289 281 286 298 298 293 297 296 294 290 279 270 263 269 278 291 303 312 311 300 310 270 240 223
122 147 179 202 177 83 198 185 164 172 156 181 192 212 208 185 166 120 117 121 112 107 104 111 101 105 124 338 329 323 325 318 311 307 313 304 305 301 302 307 307 298 302 307 294 290 293 299 298 268 263 265 268 268 280 294 298 307 300 301 284 269
121 139 152 153 115 49 289 256 225 194 221 210 185 198 184 128 114 112 118 112 121 115 89 78 68 20 359 357 356 330 327 324 314 311 315 312 310 310 310 307 307 304 302 297 297 292 299 300 300 301 299 288 278 280 278 269 265 279 287 295 291 283
138 149 127 108 153 234 224 217 205 230 222 201 186 184 161 147 111 104 102 92 51 50 78 27 18 14 354 348 330 324 328 315 316 313 304 295 295 318 315 310 305 303 303 303 302 299 296 296 298 298 305 294 292 286 282 271 270 269 275 281 286 285
147 135 129 158 144 173 240 220 216 223 230 195 177 144 110 107 123 99 100 69 59 20 357 40 26 15 358 342 341 334 320 324 317 316 320 319 321 305 303 305 307 306 307 302 297 296 298 299 295 294 291 296 293 294 289 287 277 274 261 255 273 287
139 133 141 144 157 188 211 142 189 205 179 157 127 122 129 113 123 112 112 96 46 36 10 14 0 6 17 353 334 327 334 329 311 310 307 314 315 316 309 306 308 304 296 292 292 293 292 289 290 289 289 288 288 286 292 292 294 294 290 287 285 282
141 132 125 122 143 340 74 121 195 138 123 115 114 118 120 120 116 104 72 36 58 81 132 93 11 356 7 355 338 335 338 333 333 337 329 334 331 321 318 318 307 298 300 297 293 291 288 289 290 290 289 287 285 287 285 283 287 288 289 289 289 289
134 129 116 111 95 134 204 169 140 118 112 98 87 86 102 109 83 43 39 79 311 267 107 23 33 336 12 350 341 346 350 341 337 335 331 326 321 319 312 309 300 299 295 296 296 296 295 295 297 293 294 294 289 288 284 286 286 286 287 286 283 285
124 111 116 138 154 139 111 94 84 72 80 75 74 83 74 64 90 85 83 74 19 25 24 61 23 7 6 348 352 346 345 342 338 339 332 329 324 314 311 304 306 307 311 308 305 302 298 297 295 291 290 289 290 288 287 287 285 284 281 282 284 285
120 125 126 121 105 93 80 64 57 58 82 92 84 59 57 52 48 62 77 71 54 15 7 13 25 18 10 350 357 345 349 345 352 343 343 341 339 328 332 326 312 310 307 304 306 307 304 304 300 298 298 294 290 289 289 287 285 283 282 282 283 289
124 117 116 110 105 97 96 99 92 93 86 84 97 101 103 93 84 49 34 60 83 54 27 15 37 15 14 5 357 359 347 357 352 348 344 341 336 329 331 326 316 318 322 318 315 315 311 309 308 308 304 299 294 289 287 286 287 284 284 284 285 281
118 116 117 113 107 108 101 105 101 94 92 85 87 86 85 86 94 80 76 45 50 47 45 36 31 30 8 17 12 5 358 357 357 352 347 347 343 336 340 328 330 333 322 328 329 323 316 308 306 300 295 298 300 297 293 291 289 287 285 285 282 284